"startDT [UTC]","vpos","CH4 [ppm]","stdev(CH4) [ppm]","CO2 [ppm]","stdev(CO2) [ppm]","H2O [ppm]","stdev(H2O)","p_LGR [torr]","T_LGR [C]","mt1_LGR [us]","mt2_LGR [us]","T_ECpre [C]","T_EC1 [C]","T_EC2 [C]","p_inlet [hPa]","p_in [hPa]","p_out [hPa]","T_inlet [C]","RH_inlet [%]","dwpt_inlet [C]","T_vent [C]","RH_vent [%]","dwpt_vent [C]","flow_vent [l min-1]","flow_inlet [l min-1]","dwpt_sample [C]","T_room [C]"
2012-07-15 00:00:00,0.0,1.8821,0.0009,390.81,0.30,0.2,5.7,138.16,27.68,24.62,36.42,0.88,16.97,-27.24,-52,545,-915,19.9,31.0,2.3,20.1,1.9,-31.4,5.73,2.33,-30.7,25.5
2012-07-15 00:01:00,0.0,1.8819,0.0011,390.97,0.33,0.3,5.8,138.16,27.66,24.62,36.42,0.90,16.99,-27.23,-52,545,-915,19.9,30.6,2.1,20.1,1.9,-31.4,5.73,2.35,-30.6,25.5
2012-07-15 00:02:00,0.0,1.8818,0.0009,390.91,0.30,1.7,8.6,138.16,27.64,24.62,36.42,0.91,17.00,-27.24,-52,545,-915,19.9,30.9,2.3,20.1,1.9,-31.4,5.73,2.36,-30.6,25.5
2012-07-15 00:03:00,0.0,1.8814,0.0009,390.72,0.28,1.0,9.3,138.16,27.62,24.62,36.42,0.93,17.01,-27.24,-52,545,-915,20.0,31.1,2.3,20.1,1.9,-31.4,5.73,2.33,-30.6,25.5
2012-07-15 00:04:00,0.0,1.8811,0.0009,391.02,0.31,-0.4,3.7,138.16,27.61,24.62,36.41,0.94,17.03,-27.24,-52,546,-915,20.0,30.7,2.2,20.1,1.9,-31.4,5.73,2.34,-30.5,25.4
2012-07-15 00:05:00,0.0,1.8810,0.0010,390.85,0.29,-0.7,1.8,138.16,27.59,24.62,36.42,0.92,17.04,-27.24,-52,545,-915,20.0,31.1,2.4,20.1,1.9,-31.3,5.73,2.36,-30.6,25.5
2012-07-15 00:06:00,0.0,1.8803,0.0009,390.90,0.30,-0.1,4.5,138.16,27.57,24.62,36.41,0.88,17.05,-27.25,-52,545,-915,20.0,31.3,2.5,20.1,1.9,-31.3,5.73,2.35,-30.6,25.5
2012-07-15 00:07:00,0.0,1.8800,0.0009,390.90,0.29,0.2,5.3,138.16,27.56,24.62,36.43,0.87,17.06,-27.25,-52,545,-915,20.0,31.2,2.4,20.1,1.9,-31.4,5.73,2.33,-30.5,25.5
2012-07-15 00:08:00,0.0,1.8804,0.0009,390.91,0.31,-0.6,2.7,138.17,27.54,24.62,36.42,0.88,17.06,-27.24,-52,545,-915,20.0,31.2,2.4,20.1,1.9,-31.3,5.73,2.36,-30.5,25.5
2012-07-15 00:09:00,0.0,1.8800,0.0007,391.06,0.32,0.3,6.3,138.16,27.52,24.62,36.40,1.13,16.15,-27.25,-52,545,-915,20.0,31.3,2.5,20.1,1.9,-31.3,5.73,2.36,-30.6,25.4
2012-07-15 00:10:00,0.0,1.8802,0.0010,390.92,0.29,0.0,3.1,138.17,27.50,24.62,36.42,1.33,14.04,-27.25,-52,545,-915,20.0,31.3,2.5,20.1,1.9,-31.4,5.73,2.33,-30.6,25.4
2012-07-15 00:11:00,0.0,1.8803,0.0010,390.79,0.30,2.8,11.3,138.16,27.48,24.62,36.42,1.35,11.70,-27.26,-52,545,-915,20.0,31.4,2.5,20.1,1.9,-31.4,5.73,2.34,-30.6,25.4
2012-07-15 00:12:00,0.0,1.8808,0.0009,390.96,0.29,1.0,5.8,138.16,27.46,24.62,36.42,0.83,9.32,-27.28,-52,545,-915,20.0,30.9,2.3,20.1,1.9,-31.4,5.73,2.36,-30.5,25.4
2012-07-15 00:13:00,0.0,1.8810,0.0009,390.74,0.30,0.1,5.1,138.16,27.44,24.62,36.42,0.99,7.00,-27.32,-52,545,-916,20.0,31.3,2.5,20.1,1.9,-31.5,5.73,2.35,-30.6,25.4
2012-07-15 00:14:00,0.0,1.8815,0.0008,390.68,0.34,1.9,12.1,138.16,27.43,24.62,36.41,0.97,4.79,-27.35,-52,545,-915,20.0,31.7,2.6,20.1,1.9,-31.5,5.73,2.33,-30.5,25.4
2012-07-15 00:15:00,0.0,1.8812,0.0008,390.80,0.38,0.6,8.5,138.16,27.41,24.62,36.41,1.02,2.72,-27.36,-52,545,-915,20.0,31.7,2.6,20.1,1.9,-31.6,5.73,2.35,-30.5,25.5
2012-07-15 00:16:00,0.0,1.8809,0.0009,391.02,0.27,0.1,3.9,138.16,27.40,24.62,36.41,1.03,0.75,-27.37,-52,546,-916,20.0,31.3,2.5,20.1,1.9,-31.5,5.73,2.36,-30.5,25.4
2012-07-15 00:17:00,0.0,1.8815,0.0009,390.75,0.34,0.4,6.4,138.16,27.38,24.62,36.41,0.94,-1.10,-27.36,-52,546,-915,20.0,31.7,2.6,20.1,1.9,-31.5,5.73,2.35,-30.5,25.4
2012-07-15 00:18:00,0.0,1.8813,0.0009,390.96,0.30,1.6,8.5,138.16,27.37,24.62,36.41,0.98,-2.86,-27.35,-52,545,-916,19.9,31.8,2.6,20.0,1.9,-31.6,5.73,2.34,-30.6,25.4
2012-07-15 00:19:00,0.0,1.8811,0.0009,390.88,0.31,0.1,5.3,138.16,27.36,24.62,36.42,1.05,-4.35,-27.35,-52,545,-915,19.9,32.0,2.7,20.0,1.9,-31.6,5.73,2.36,-30.6,25.4
2012-07-15 00:20:00,0.0,1.8812,0.0010,390.90,0.28,-1.0,0.0,138.16,27.34,24.62,36.41,0.95,-5.10,-27.33,-52,545,-915,19.9,32.2,2.7,20.0,1.9,-31.5,5.73,2.36,-30.6,25.4
2012-07-15 00:21:00,0.0,1.8810,0.0010,390.94,0.26,-0.8,1.0,138.16,27.33,24.62,36.41,0.93,-6.85,-27.32,-52,545,-916,19.9,32.1,2.7,20.0,1.9,-31.4,5.73,2.34,-30.6,25.4
2012-07-15 00:22:00,0.0,1.8804,0.0009,391.14,0.29,-0.7,1.8,138.16,27.32,24.62,36.40,0.99,-8.29,-27.31,-52,545,-916,19.8,31.8,2.6,20.0,1.9,-31.4,5.73,2.34,-30.6,25.3
2012-07-15 00:23:00,0.0,1.8806,0.0010,391.02,0.29,-0.5,2.8,138.16,27.31,24.62,36.40,1.04,-9.63,-27.30,-52,545,-915,19.9,32.0,2.7,19.9,1.9,-31.4,5.73,2.36,-30.6,25.3
2012-07-15 00:24:00,0.0,1.8803,0.0009,391.05,0.31,0.4,7.3,138.16,27.30,24.62,36.41,0.96,-10.88,-27.28,-52,545,-916,19.8,31.9,2.6,19.9,1.9,-31.5,5.73,2.36,-30.6,25.3
2012-07-15 00:25:00,0.0,1.8803,0.0006,391.03,0.29,0.9,6.1,138.16,27.28,24.62,36.40,0.92,-12.04,-27.28,-52,545,-915,19.8,32.1,2.7,20.0,1.9,-31.4,5.73,2.34,-30.6,25.3
2012-07-15 00:26:00,0.0,1.8805,0.0009,391.13,0.25,1.5,8.1,138.16,27.27,24.61,36.41,0.97,-13.12,-27.26,-52,545,-916,19.9,31.8,2.6,19.9,1.9,-31.4,5.73,2.34,-30.5,25.4
2012-07-15 00:27:00,0.0,1.8802,0.0009,391.09,0.33,0.5,5.7,138.16,27.26,24.62,36.40,1.02,-14.08,-27.26,-52,545,-916,19.9,31.8,2.6,20.0,1.9,-31.4,5.73,2.37,-30.6,25.4
2012-07-15 00:28:00,0.0,1.8804,0.0009,390.97,0.31,-1.0,0.4,138.16,27.25,24.62,36.40,0.99,-15.01,-27.25,-52,545,-916,19.8,31.9,2.6,19.9,1.9,-31.5,5.73,2.35,-30.6,25.4
2012-07-15 00:29:00,0.0,1.8798,0.0008,391.09,0.40,1.9,9.4,138.16,27.23,24.62,36.40,0.92,-15.88,-27.25,-52,545,-915,19.8,31.7,2.5,19.9,1.9,-31.4,5.73,2.34,-30.6,25.4
2012-07-15 00:30:00,0.0,1.8803,0.0010,391.06,0.24,2.0,10.4,138.16,27.22,24.61,36.40,0.92,-16.68,-27.25,-52,545,-916,19.8,31.8,2.5,19.9,1.9,-31.5,5.73,2.35,-30.6,25.4
2012-07-15 00:31:00,0.0,1.8798,0.0010,391.13,0.35,-0.1,4.8,138.16,27.21,24.61,36.40,0.97,-17.47,-27.25,-52,545,-916,19.8,31.7,2.5,19.9,1.9,-31.5,5.73,2.36,-30.6,25.3
2012-07-15 00:32:00,0.0,1.8795,0.0010,391.05,0.32,0.7,7.6,138.16,27.20,24.62,36.40,1.01,-18.21,-27.25,-52,545,-916,19.8,31.7,2.5,19.9,1.9,-31.5,5.73,2.34,-30.6,25.3
2012-07-15 00:33:00,0.0,1.8795,0.0009,391.14,0.28,-0.3,3.1,138.16,27.18,24.62,36.40,1.00,-18.91,-27.25,-52,545,-916,19.8,31.5,2.4,19.9,1.9,-31.5,5.73,2.34,-30.6,25.3
2012-07-15 00:34:00,0.0,1.8797,0.0010,391.16,0.38,0.2,3.9,138.16,27.17,24.61,36.40,0.93,-19.56,-27.25,-52,545,-916,19.8,31.6,2.5,19.9,1.9,-31.5,5.73,2.36,-30.6,25.3
2012-07-15 00:35:00,0.0,1.8795,0.0009,390.95,0.27,-0.5,3.3,138.16,27.16,24.61,36.41,0.92,-20.21,-27.25,-52,545,-916,19.8,31.6,2.5,19.9,1.9,-31.5,5.73,2.36,-30.5,25.3
2012-07-15 00:36:00,0.0,1.8794,0.0010,390.91,0.28,0.2,4.9,138.16,27.15,24.62,36.40,0.95,-20.82,-27.26,-52,545,-916,19.9,31.8,2.6,19.9,1.9,-31.5,5.73,2.34,-30.5,25.3
2012-07-15 00:37:00,0.0,1.8789,0.0009,391.12,0.34,0.0,3.9,138.16,27.14,24.61,36.40,1.00,-21.40,-27.26,-52,545,-916,19.8,31.6,2.5,19.9,1.9,-31.5,5.73,2.34,-30.5,25.3
2012-07-15 00:38:00,0.0,1.8787,0.0007,391.04,0.30,0.5,6.0,138.16,27.13,24.61,36.40,1.00,-21.94,-27.26,-52,545,-915,19.8,31.5,2.4,19.9,1.9,-31.5,5.73,2.37,-30.5,25.3
2012-07-15 00:39:00,0.0,1.8779,0.0010,391.15,0.36,2.8,10.1,138.16,27.12,24.62,36.40,0.96,-22.46,-27.27,-52,545,-916,19.8,31.5,2.4,19.9,1.9,-31.5,5.73,2.35,-30.5,25.3
2012-07-15 00:40:00,0.0,1.8773,0.0012,391.34,0.33,0.9,6.6,138.16,27.11,24.62,36.40,0.91,-22.95,-27.28,-52,545,-916,19.9,31.1,2.3,19.9,1.9,-31.5,5.73,2.33,-30.5,25.3
2012-07-15 00:41:00,0.0,1.8776,0.0010,391.23,0.31,-0.0,4.1,138.16,27.09,24.62,36.39,0.92,-23.40,-27.28,-52,545,-916,19.9,31.3,2.4,19.9,1.9,-31.5,5.73,2.35,-30.5,25.4
2012-07-15 00:42:00,0.0,1.8769,0.0011,391.29,0.31,-0.1,3.3,138.16,27.08,24.62,36.40,0.97,-23.83,-27.28,-52,545,-916,19.9,31.1,2.3,19.9,1.9,-31.4,5.73,2.37,-30.5,25.3
2012-07-15 00:43:00,0.0,1.8769,0.0010,391.21,0.30,-0.2,3.7,138.16,27.07,24.62,36.40,0.98,-24.24,-27.29,-52,545,-916,19.9,31.3,2.4,19.9,1.9,-31.5,5.73,2.34,-30.5,25.3
2012-07-15 00:44:00,0.0,1.8760,0.0010,391.31,0.30,-0.9,0.8,138.16,27.06,24.62,36.40,1.00,-24.62,-27.30,-52,545,-916,19.9,30.9,2.2,19.9,1.9,-31.5,5.73,2.34,-30.5,25.3
2012-07-15 00:45:00,0.0,1.8759,0.0011,391.32,0.36,-0.0,4.9,138.16,27.05,24.61,36.40,0.95,-24.98,-27.31,-52,545,-916,19.9,30.9,2.2,19.9,1.9,-31.5,5.73,2.36,-30.5,25.3
2012-07-15 00:46:00,0.0,1.8765,0.0010,391.14,0.28,0.3,5.7,138.16,27.04,24.62,36.40,0.91,-25.31,-27.32,-52,545,-916,19.9,31.4,2.4,19.9,1.9,-31.4,5.73,2.36,-30.5,25.3
2012-07-15 00:47:00,0.0,1.8757,0.0012,391.44,0.40,1.0,6.4,138.16,27.03,24.62,36.39,0.92,-25.63,-27.32,-52,545,-916,19.9,30.8,2.1,19.9,1.9,-31.5,5.73,2.34,-30.5,25.3
2012-07-15 00:48:00,0.0,1.8748,0.0009,391.58,0.29,0.2,4.3,138.16,27.02,24.62,36.39,0.94,-25.93,-27.32,-52,545,-915,19.9,30.4,2.0,19.9,1.9,-31.6,5.73,2.34,-30.5,25.3
2012-07-15 00:49:00,0.0,1.8750,0.0008,391.42,0.35,-0.3,4.6,138.16,27.01,24.62,36.39,0.98,-26.21,-27.33,-52,545,-916,19.9,31.0,2.2,19.9,1.9,-31.6,5.73,2.36,-30.5,25.3
2012-07-15 00:50:00,0.0,1.8754,0.0010,391.31,0.35,1.6,7.3,138.16,27.00,24.61,36.40,1.00,-26.48,-27.34,-52,545,-916,19.9,31.4,2.4,19.9,1.9,-31.6,5.73,2.35,-30.4,25.3
2012-07-15 00:51:00,0.0,1.8748,0.0009,391.34,0.32,-0.3,2.5,138.16,26.99,24.61,36.39,0.97,-26.73,-27.35,-52,545,-916,19.9,31.2,2.4,19.9,1.9,-31.6,5.73,2.33,-30.4,25.3
2012-07-15 00:52:00,0.0,1.8741,0.0010,391.37,0.31,0.5,6.2,138.16,26.98,24.61,36.40,0.94,-26.96,-27.35,-52,545,-915,19.9,31.0,2.3,20.0,1.9,-31.6,5.73,2.36,-30.4,25.4
2012-07-15 00:53:00,0.0,1.8737,0.0009,391.33,0.26,-0.5,2.6,138.16,26.97,24.62,36.40,0.91,-27.17,-27.36,-52,545,-916,19.9,31.0,2.3,20.0,1.9,-31.6,5.73,2.36,-30.4,25.3
2012-07-15 00:54:00,0.0,1.8730,0.0009,391.39,0.27,1.7,9.9,138.16,26.96,24.61,36.40,0.86,-27.26,-27.37,-52,545,-915,19.9,30.7,2.2,20.0,1.9,-31.6,5.73,2.34,-30.3,25.4
2012-07-15 00:55:00,0.0,1.8726,0.0010,391.40,0.32,0.9,8.7,138.16,26.96,24.61,36.40,0.95,-27.02,-27.37,-52,545,-916,19.9,30.6,2.1,20.0,1.9,-31.5,5.73,2.33,-30.4,25.3
2012-07-15 00:56:00,0.0,1.8719,0.0011,391.66,0.27,3.1,10.4,138.16,26.95,24.61,36.39,1.00,-27.14,-27.37,-52,545,-915,19.9,30.3,2.0,20.0,1.9,-31.5,5.73,2.36,-30.3,25.4
2012-07-15 00:57:00,0.0,1.8717,0.0009,391.66,0.30,2.1,13.7,138.16,26.94,24.62,36.39,0.97,-27.32,-27.38,-52,545,-916,19.9,30.1,1.9,20.0,1.9,-31.6,5.73,2.35,-30.3,25.4
2012-07-15 00:58:00,0.0,1.8714,0.0009,391.70,0.32,0.7,7.0,138.16,26.93,24.61,36.39,0.95,-27.09,-27.39,-52,545,-915,19.9,29.9,1.8,20.1,1.9,-31.5,5.73,2.34,-30.3,25.4
2012-07-15 00:59:00,0.0,1.8714,0.0010,391.47,0.30,1.8,10.0,138.16,26.92,24.62,36.40,0.96,-27.09,-27.39,-52,545,-916,20.0,30.3,2.0,20.0,1.9,-31.6,5.73,2.34,-30.3,25.4
2012-07-15 01:00:00,0.0,1.8710,0.0008,391.40,0.25,0.5,6.3,138.16,26.92,24.62,36.39,0.91,-27.25,-27.40,-52,545,-916,20.0,30.8,2.3,20.0,1.9,-31.5,5.73,2.36,-30.3,25.4
2012-07-15 01:01:00,0.0,1.8713,0.0010,391.36,0.29,1.3,8.0,138.16,26.91,24.61,36.39,0.87,-27.27,-27.41,-52,545,-915,20.0,30.7,2.2,20.1,1.8,-31.6,5.73,2.33,-30.3,25.4
2012-07-15 01:02:00,0.0,1.8709,0.0010,391.42,0.31,0.5,6.4,138.16,26.90,24.62,36.39,0.96,-27.07,-27.41,-52,545,-916,20.0,30.6,2.2,20.1,1.8,-31.7,5.73,2.34,-30.3,25.5
2012-07-15 01:03:00,0.0,1.8710,0.0009,391.48,0.27,1.7,7.1,138.16,26.89,24.62,36.39,1.00,-27.20,-27.43,-52,545,-916,20.1,30.3,2.1,20.1,1.8,-31.6,5.73,2.36,-30.3,25.4
2012-07-15 01:04:00,0.0,1.8709,0.0010,391.34,0.31,-0.2,4.1,138.16,26.88,24.61,36.39,0.99,-27.36,-27.43,-52,546,-916,20.1,30.4,2.2,20.1,1.8,-31.6,5.73,2.35,-30.3,25.5
2012-07-15 01:05:00,0.0,1.8712,0.0010,391.23,0.30,1.3,7.6,138.16,26.87,24.61,36.39,0.93,-27.12,-27.43,-52,546,-916,20.1,30.7,2.3,20.1,1.8,-31.7,5.73,2.33,-30.2,25.5
2012-07-15 01:06:00,0.0,1.8711,0.0009,391.47,0.30,-0.4,2.6,138.16,26.86,24.61,36.38,0.94,-27.14,-27.44,-52,545,-916,20.1,30.4,2.2,20.1,1.8,-31.6,5.73,2.35,-30.3,25.4
2012-07-15 01:07:00,0.0,1.8711,0.0010,391.32,0.28,-0.8,1.4,138.16,26.85,24.61,36.39,0.91,-27.31,-27.44,-52,545,-916,20.1,30.5,2.2,20.1,1.8,-31.6,5.73,2.36,-30.3,25.4
2012-07-15 01:08:00,0.0,1.8707,0.0009,391.22,0.31,2.6,10.4,138.16,26.85,24.62,36.39,0.99,-27.51,-26.78,-52,546,-916,20.1,31.0,2.4,20.1,1.9,-31.5,5.73,2.33,-30.2,25.4
2012-07-15 01:09:00,0.0,1.8706,0.0011,390.87,0.37,-0.5,2.9,138.16,26.84,24.62,36.40,0.76,-27.67,-25.01,-52,546,-916,20.1,31.7,2.8,20.1,2.0,-30.9,5.73,2.35,-30.2,25.5
2012-07-15 01:10:00,0.0,1.8704,0.0010,391.05,0.32,-0.1,3.7,138.16,26.83,24.62,36.39,0.82,-27.76,-23.03,-52,546,-916,20.1,31.4,2.7,20.1,2.2,-29.8,5.73,2.37,-30.3,25.5
2012-07-15 01:11:00,0.0,1.8703,0.0009,391.39,0.30,0.0,5.1,138.16,26.82,24.62,36.38,0.90,-27.81,-21.07,-52,546,-916,20.1,30.5,2.2,20.1,2.3,-29.2,5.73,2.34,-30.3,25.4
2012-07-15 01:12:00,0.0,1.8705,0.0010,391.01,0.38,0.3,6.7,138.16,26.81,24.62,36.39,0.94,-27.83,-19.19,-52,546,-916,20.0,31.4,2.5,20.0,2.4,-28.9,5.73,2.34,-30.3,25.4
2012-07-15 01:13:00,0.0,1.8714,0.0010,390.92,0.33,0.4,6.3,138.17,26.80,24.61,36.39,0.73,-27.83,-17.41,-52,546,-916,20.0,31.8,2.7,20.0,2.4,-28.9,5.73,2.37,-30.3,25.4
2012-07-15 01:14:00,0.0,1.8707,0.0011,390.69,0.36,-1.0,0.0,138.17,26.79,24.61,36.39,0.82,-27.82,-15.72,-52,545,-916,19.9,31.9,2.6,20.0,2.4,-29.0,5.73,2.35,-30.4,25.4
2012-07-15 01:15:00,0.0,1.8694,0.0010,391.28,0.24,-0.1,3.6,138.17,26.79,24.61,36.38,0.91,-27.81,-14.10,-52,546,-916,19.9,30.8,2.2,20.0,2.3,-29.1,5.73,2.33,-30.4,25.4
2012-07-15 01:16:00,0.0,1.8696,0.0010,391.08,0.28,-0.2,4.5,138.17,26.78,24.61,36.39,0.94,-27.79,-12.58,-52,545,-916,19.9,31.0,2.2,20.0,2.3,-29.2,5.73,2.35,-30.4,25.4
2012-07-15 01:17:00,0.0,1.8691,0.0012,391.19,0.37,-0.2,6.2,138.17,26.77,24.61,36.38,0.77,-27.77,-11.15,-52,545,-916,19.8,31.0,2.1,19.9,2.3,-29.4,5.73,2.36,-30.4,25.4
2012-07-15 01:18:00,0.0,1.8680,0.0012,391.42,0.31,1.2,8.5,138.17,26.76,24.62,36.38,0.83,-27.76,-9.78,-52,545,-916,19.7,30.4,1.9,19.9,2.3,-29.6,5.73,2.33,-30.5,25.3
2012-07-15 01:19:00,0.0,1.8688,0.0010,391.41,0.32,-0.3,4.0,138.17,26.75,24.61,36.39,0.89,-27.74,-8.48,-52,545,-916,19.7,30.5,1.8,19.9,2.2,-29.7,5.73,2.34,-30.5,25.3
2012-07-15 01:20:00,0.0,1.8691,0.0011,391.22,0.34,-0.1,4.6,138.17,26.74,24.61,36.39,0.95,-27.72,-7.26,-52,545,-916,19.7,30.8,2.0,19.8,2.2,-29.7,5.73,2.37,-30.5,25.3
2012-07-15 01:21:00,0.0,1.8692,0.0009,391.25,0.29,-0.4,3.6,138.17,26.73,24.61,36.38,0.82,-27.70,-6.09,-52,545,-916,19.6,31.0,2.0,19.8,2.2,-29.8,5.73,2.35,-30.6,25.3
2012-07-15 01:22:00,0.0,1.8694,0.0011,391.13,0.34,-0.9,1.1,138.17,26.72,24.61,36.39,0.81,-27.68,-4.98,-51,545,-916,19.6,31.2,2.1,19.7,2.2,-29.9,5.73,2.34,-30.6,25.3
2012-07-15 01:23:00,0.0,1.8695,0.0008,391.08,0.28,-0.5,3.7,138.17,26.71,24.61,36.39,0.86,-27.67,-3.93,-51,545,-917,19.5,31.4,2.1,19.7,2.2,-30.1,5.73,2.37,-30.6,25.2
2012-07-15 01:24:00,0.0,1.8690,0.0009,391.01,0.34,-1.0,0.0,138.17,26.70,24.61,36.38,0.92,-27.65,-2.93,-51,545,-916,19.5,31.7,2.2,19.7,2.2,-30.1,5.73,2.36,-30.6,25.2
2012-07-15 01:25:00,0.0,1.8687,0.0011,390.96,0.34,-1.0,0.0,138.17,26.69,24.62,36.38,0.96,-27.63,-1.98,-51,545,-916,19.4,31.9,2.3,19.6,2.2,-30.2,5.73,2.34,-30.6,25.2
2012-07-15 01:26:00,0.0,1.8688,0.0011,391.10,0.29,-0.9,0.8,138.17,26.68,24.61,36.38,0.83,-27.62,-1.07,-51,544,-916,19.4,31.5,2.0,19.6,2.2,-30.3,5.73,2.36,-30.7,25.2
2012-07-15 01:27:00,0.0,1.8689,0.0011,390.90,0.29,-0.9,1.1,138.17,26.67,24.61,36.38,0.81,-27.59,-0.22,-51,544,-917,19.3,32.1,2.2,19.6,2.2,-30.3,5.73,2.37,-30.7,25.2
2012-07-15 01:28:00,0.0,1.8695,0.0010,390.77,0.24,-0.8,1.5,138.17,26.66,24.61,36.38,0.86,-27.58,0.60,-51,544,-916,19.3,32.5,2.4,19.5,2.1,-30.4,5.73,2.35,-30.7,25.2
2012-07-15 01:29:00,0.0,1.8690,0.0011,390.83,0.38,-0.7,2.4,138.17,26.65,24.61,36.38,0.91,-27.57,1.37,-51,544,-916,19.3,32.1,2.2,19.5,2.1,-30.4,5.73,2.36,-30.7,25.2
2012-07-15 01:30:00,0.0,1.8681,0.0009,391.25,0.29,-0.1,5.1,138.17,26.64,24.61,36.38,0.96,-27.55,2.07,-51,544,-916,19.3,31.0,1.7,19.5,2.1,-30.4,5.73,2.40,-30.7,25.1
2012-07-15 01:31:00,0.0,1.8692,0.0009,391.19,0.27,-1.0,0.0,138.17,26.63,24.61,36.38,0.89,-27.54,2.68,-51,544,-917,19.2,31.1,1.7,19.5,2.1,-30.4,5.73,2.38,-30.7,25.1
2012-07-15 01:32:00,0.0,1.8698,0.0008,390.98,0.29,-0.3,4.1,138.17,26.62,24.61,36.38,0.83,-27.52,3.05,-51,544,-917,19.2,31.7,2.0,19.4,2.1,-30.5,5.73,2.37,-30.7,25.1
2012-07-15 01:33:00,0.0,1.8693,0.0010,391.00,0.33,-1.0,0.0,138.17,26.60,24.61,36.38,0.84,-27.51,3.24,-51,544,-916,19.1,31.8,2.0,19.4,2.1,-30.6,5.73,2.40,-30.7,25.0
2012-07-15 01:34:00,0.0,1.8698,0.0011,390.92,0.25,-0.9,0.5,138.17,26.60,24.61,36.38,0.88,-27.50,3.51,-51,544,-917,19.1,32.1,2.1,19.4,2.1,-30.6,5.73,2.39,-30.7,25.1
2012-07-15 01:35:00,0.0,1.8698,0.0009,390.84,0.31,-1.0,0.0,138.17,26.59,24.61,36.38,0.93,-27.48,3.95,-51,544,-917,19.1,32.2,2.1,19.4,2.1,-30.6,5.73,2.36,-30.7,25.1
2012-07-15 01:36:00,0.0,1.8706,0.0011,390.69,0.31,-0.1,4.4,138.17,26.57,24.61,36.39,0.95,-27.46,4.54,-50,544,-917,19.1,32.7,2.3,19.4,2.1,-30.6,5.73,2.39,-30.7,25.0
2012-07-15 01:37:00,0.0,1.8709,0.0009,390.63,0.28,-0.5,2.4,138.17,26.56,24.61,36.37,0.84,-27.45,5.09,-51,544,-916,19.0,33.3,2.5,19.3,2.1,-30.7,5.73,2.40,-30.7,25.0
2012-07-15 01:38:00,0.0,1.8705,0.0011,390.51,0.29,-0.6,3.5,138.17,26.55,24.61,36.39,0.82,-27.45,5.61,-50,544,-916,19.0,33.2,2.4,19.3,2.1,-30.7,5.73,2.38,-30.7,25.0
2012-07-15 01:39:00,0.0,1.8705,0.0009,390.42,0.29,-0.7,2.6,138.17,26.54,24.61,36.38,0.86,-27.44,6.11,-50,544,-917,19.0,33.4,2.5,19.3,2.1,-30.7,5.73,2.38,-30.7,25.0
2012-07-15 01:40:00,0.0,1.8707,0.0010,390.52,0.25,-1.0,0.0,138.17,26.53,24.61,36.38,0.90,-27.42,6.58,-51,544,-917,18.9,33.2,2.4,19.3,2.1,-30.7,5.73,2.40,-30.7,25.0
2012-07-15 01:41:00,0.0,1.8700,0.0009,390.72,0.32,-0.9,0.4,138.17,26.52,24.61,36.37,0.94,-27.41,7.03,-51,544,-916,18.9,33.1,2.3,19.3,2.1,-30.7,5.73,2.39,-30.7,25.0
2012-07-15 01:42:00,0.0,1.8711,0.0009,390.59,0.28,-0.9,1.1,138.17,26.52,24.61,36.39,0.95,-27.40,7.47,-51,544,-916,18.9,33.2,2.4,19.2,2.1,-30.7,5.73,2.37,-30.7,25.0
2012-07-15 01:43:00,0.0,1.8714,0.0008,390.65,0.25,-1.0,0.0,138.17,26.50,24.61,36.39,0.85,-27.39,7.86,-50,543,-916,18.9,32.9,2.2,19.2,2.1,-30.7,5.73,2.39,-30.7,25.0
2012-07-15 01:44:00,0.0,1.8709,0.0009,390.80,0.32,-0.7,2.0,138.17,26.49,24.61,36.37,0.82,-27.39,8.26,-51,543,-917,18.9,32.8,2.1,19.2,2.1,-30.7,5.73,2.40,-30.7,25.0
2012-07-15 01:45:00,0.0,1.8703,0.0009,390.78,0.33,-1.0,0.0,138.17,26.48,24.61,36.38,0.87,-27.37,8.63,-50,543,-916,18.9,32.7,2.1,19.2,2.1,-30.7,5.73,2.37,-30.7,24.9
2012-07-15 01:46:00,0.0,1.8710,0.0010,390.63,0.30,-0.9,0.5,138.17,26.47,24.61,36.39,0.88,-27.37,8.99,-50,543,-917,18.8,33.0,2.2,19.2,2.1,-30.6,5.73,2.38,-30.7,24.9
2012-07-15 01:47:00,0.0,1.8715,0.0012,390.42,0.34,-1.0,0.0,138.17,26.46,24.61,36.38,0.92,-27.36,9.34,-50,543,-917,18.8,33.8,2.5,19.2,2.1,-30.7,5.73,2.41,-30.7,24.9
2012-07-15 01:48:00,0.0,1.8714,0.0010,390.20,0.31,-1.0,0.0,138.17,26.46,24.61,36.38,0.95,-27.35,9.68,-50,543,-917,18.8,34.3,2.7,19.1,2.1,-30.7,5.73,2.38,-30.7,24.9
2012-07-15 01:49:00,0.0,1.8713,0.0009,390.39,0.27,-0.9,0.5,138.17,26.45,24.61,36.38,0.89,-27.34,10.01,-50,543,-917,18.7,33.7,2.4,19.1,2.1,-30.7,5.73,2.37,-30.7,24.9
2012-07-15 01:50:00,0.0,1.8709,0.0009,390.30,0.31,-0.9,0.6,138.17,26.44,24.61,36.38,0.83,-27.33,10.31,-50,543,-917,18.7,33.7,2.4,19.1,2.1,-30.7,5.73,2.40,-30.7,24.9
2012-07-15 01:51:00,0.0,1.8704,0.0010,390.42,0.33,-1.0,0.0,138.17,26.43,24.61,36.38,0.86,-27.33,10.61,-50,543,-917,18.8,33.4,2.3,19.1,2.1,-30.7,5.73,2.40,-30.7,24.9
2012-07-15 01:52:00,0.0,1.8709,0.0009,390.51,0.30,-0.6,1.9,138.17,26.43,24.61,36.37,0.87,-27.32,10.92,-50,543,-917,18.7,33.5,2.4,19.1,2.1,-30.7,5.73,2.37,-30.7,24.9
2012-07-15 01:53:00,0.0,1.8714,0.0009,390.28,0.29,-0.1,6.4,138.17,26.42,24.61,36.38,0.92,-27.31,11.23,-50,543,-917,18.7,33.7,2.4,19.1,2.1,-30.7,5.73,2.39,-30.7,24.9
2012-07-15 01:54:00,0.0,1.8718,0.0009,390.48,0.32,-0.9,0.5,138.17,26.40,24.61,36.37,0.94,-27.31,11.52,-50,543,-916,18.7,33.4,2.3,19.1,2.1,-30.7,5.73,2.40,-30.7,24.9
2012-07-15 01:55:00,0.0,1.8706,0.0010,390.61,0.30,-0.7,2.1,138.17,26.39,24.62,36.37,0.95,-27.30,11.81,-50,543,-917,18.7,33.0,2.1,19.1,2.1,-30.7,5.73,2.37,-30.7,24.8
2012-07-15 01:56:00,0.0,1.8719,0.0009,390.47,0.30,-0.9,0.7,138.17,26.38,24.61,36.37,0.86,-27.29,12.08,-50,543,-917,18.7,33.3,2.2,19.1,2.1,-30.7,5.73,2.38,-30.6,24.8
2012-07-15 01:57:00,0.0,1.8711,0.0010,390.44,0.31,-0.9,0.5,138.17,26.37,24.61,36.38,0.82,-27.29,12.34,-50,543,-917,18.7,33.2,2.2,19.1,2.1,-30.7,5.73,2.41,-30.6,24.8
2012-07-15 01:58:00,0.0,1.8727,0.0009,390.38,0.31,-1.0,0.1,138.17,26.36,24.61,36.37,0.86,-27.28,12.59,-50,543,-917,18.7,33.7,2.4,19.0,2.1,-30.7,5.73,2.38,-30.7,24.8
2012-07-15 01:59:00,0.0,1.8719,0.0009,390.38,0.32,-0.8,1.6,138.17,26.36,24.61,36.38,0.89,-27.27,12.84,-50,543,-917,18.7,33.6,2.4,19.0,2.2,-30.7,5.73,2.37,-30.7,24.8
2012-07-15 02:00:00,1.0,1.8904,0.0123,385.20,3.60,-1.0,0.0,138.17,26.35,24.61,36.38,0.91,-27.27,13.07,-50,638,-917,18.7,33.8,2.4,19.0,2.1,-30.7,5.73,2.39,-30.7,24.8
2012-07-15 02:01:00,1.0,1.9042,0.0010,381.37,0.26,-0.9,0.5,138.17,26.34,24.61,36.38,0.94,-27.27,13.28,-50,636,-917,18.7,34.0,2.5,19.0,2.2,-30.6,5.73,2.39,-30.7,24.8
2012-07-15 02:02:00,1.0,1.9043,0.0011,381.44,0.28,-0.8,1.9,138.17,26.33,24.61,36.37,0.94,-27.26,13.49,-50,636,-917,18.7,34.0,2.5,19.0,2.2,-30.6,5.73,2.36,-30.7,24.7
2012-07-15 02:03:00,1.0,1.9047,0.0008,381.47,0.27,-0.5,3.9,138.17,26.32,24.61,36.38,0.86,-27.26,13.70,-50,636,-916,18.7,34.2,2.6,19.0,2.2,-30.7,5.73,2.39,-30.6,24.7
2012-07-15 02:04:00,1.0,1.9055,0.0012,381.50,0.28,-0.6,2.9,138.18,26.32,24.61,36.38,0.84,-27.25,13.88,-50,639,-917,18.7,34.4,2.7,19.0,2.1,-30.7,5.73,2.40,-30.6,24.8
2012-07-15 02:05:00,0.0,1.8881,0.0121,386.36,3.40,-0.8,1.4,138.17,26.31,24.61,36.38,0.83,-27.25,14.08,-50,542,-916,18.7,34.6,2.8,19.1,2.1,-30.7,5.73,2.38,-30.6,24.7
2012-07-15 02:06:00,0.0,1.8739,0.0010,390.07,0.27,-1.0,0.0,138.17,26.30,24.61,36.37,0.88,-27.24,14.24,-50,542,-917,18.7,34.5,2.7,19.1,2.1,-30.7,5.73,2.39,-30.6,24.8
2012-07-15 02:07:00,0.0,1.8731,0.0008,390.04,0.26,-0.8,1.2,138.17,26.29,24.61,36.38,0.90,-27.24,14.41,-50,542,-917,18.8,34.4,2.7,19.1,2.1,-30.7,5.73,2.41,-30.6,24.8
2012-07-15 02:08:00,0.0,1.8737,0.0008,389.95,0.33,-0.8,1.3,138.18,26.28,24.61,36.37,0.94,-27.24,14.57,-50,542,-916,18.8,34.8,2.9,19.1,2.1,-30.7,5.73,2.38,-30.6,24.8
2012-07-15 02:09:00,0.0,1.8739,0.0010,389.99,0.25,-0.8,1.5,138.17,26.27,24.61,36.37,0.94,-27.23,14.73,-50,542,-917,18.8,34.8,2.9,19.1,2.1,-30.7,5.73,2.38,-30.6,24.8
2012-07-15 02:10:00,0.0,1.8739,0.0010,389.83,0.29,-0.8,1.6,138.17,26.27,24.61,36.37,0.88,-27.23,14.87,-50,542,-916,18.8,35.3,3.1,19.1,2.1,-30.7,5.73,2.41,-30.6,24.9
2012-07-15 02:11:00,0.0,1.8747,0.0011,389.91,0.32,-0.2,4.6,138.18,26.26,24.61,36.37,0.85,-27.23,15.01,-50,542,-916,18.8,35.1,3.0,19.1,2.1,-30.7,5.73,2.39,-30.6,24.9
2012-07-15 02:12:00,0.0,1.8748,0.0010,390.17,0.27,-1.0,0.0,138.17,26.25,24.61,36.37,0.85,-27.23,15.15,-50,543,-916,18.8,34.7,2.9,19.1,2.1,-30.7,5.73,2.37,-30.6,24.9
2012-07-15 02:13:00,0.0,1.8740,0.0010,389.92,0.33,-0.7,2.1,138.17,26.24,24.61,36.37,0.88,-27.22,15.28,-50,543,-917,18.8,34.8,2.9,19.1,2.1,-30.7,5.73,2.41,-30.6,24.9
2012-07-15 02:14:00,0.0,1.8737,0.0010,389.99,0.27,-0.9,0.7,138.17,26.23,24.61,36.37,0.90,-27.22,15.41,-50,542,-917,18.7,34.9,2.9,19.0,2.1,-30.7,5.73,2.40,-30.6,24.9
2012-07-15 02:15:00,0.0,1.8742,0.0009,389.79,0.29,0.9,10.3,138.18,26.22,24.61,36.37,0.93,-27.22,15.52,-50,542,-916,18.7,35.1,3.0,19.0,2.1,-30.7,5.73,2.37,-30.6,24.9
2012-07-15 02:16:00,0.0,1.8739,0.0011,389.81,0.34,-1.0,0.0,138.17,26.21,24.61,36.37,0.94,-27.22,15.63,-50,543,-916,18.7,35.4,3.1,19.0,2.1,-30.8,5.73,2.39,-30.6,24.9
2012-07-15 02:17:00,0.0,1.8740,0.0010,389.62,0.37,-0.8,1.5,138.17,26.21,24.61,36.37,0.94,-27.21,15.74,-50,542,-917,18.7,35.7,3.2,19.0,2.1,-30.7,5.73,2.41,-30.6,24.9
2012-07-15 02:18:00,0.0,1.8736,0.0010,390.08,0.32,-0.5,4.2,138.17,26.20,24.61,36.37,0.87,-27.21,15.84,-50,542,-917,18.7,34.7,2.8,19.0,2.1,-30.8,5.73,2.37,-30.6,24.9
2012-07-15 02:19:00,0.0,1.8741,0.0011,389.74,0.27,-0.6,3.3,138.18,26.19,24.61,36.38,0.88,-27.20,15.94,-50,543,-917,18.7,35.3,3.1,19.0,2.1,-30.7,5.73,2.39,-30.6,24.8
2012-07-15 02:20:00,0.0,1.8747,0.0012,389.90,0.32,-0.3,4.2,138.17,26.19,24.61,36.37,0.85,-27.20,16.03,-50,543,-916,18.7,35.1,3.0,19.0,2.1,-30.7,5.73,2.41,-30.6,24.8
2012-07-15 02:21:00,0.0,1.8748,0.0010,389.88,0.26,-1.0,0.0,138.18,26.18,24.61,36.37,0.87,-27.20,16.12,-50,543,-917,18.7,35.1,3.0,19.0,2.1,-30.7,5.73,2.38,-30.6,24.9
2012-07-15 02:22:00,0.0,1.8750,0.0011,390.17,0.30,-0.2,5.1,138.18,26.18,24.61,36.36,0.89,-27.20,16.21,-50,543,-917,18.7,34.5,2.8,19.0,2.1,-30.7,5.73,2.38,-30.6,24.8